Station Historical Data
Daily Summary for July 27, 2017 Units:  English    Metric   Both
« Previous Day
Next Day »
Daily Weekly Monthly Yearly Custom
  High: Low: Average:
Temperature: 81.9 °F 67.1 °F 72.8 °F
Dew Point: 67.6 °F 60.5 °F 64.7 °F
Humidity: 91% 55% 77%
Wind Speed: 7.0mph 0.0mph 1mph
Wind Gust: 8.0mph - -
Wind- - SW
Pressure: 30.00 in 29.84 in -
Precipitation: 0.00 in    
Historical Graphs
 
 
Tabular Data for July 27, 2017
Time Temperature Dew Point Pressure Wind Wind Speed Wind Gust Humidity Rainfall Rate (Hourly)
00:00 69.2 °F 60.6 °F 30.00 in SW 2.0 mph 5.0 mph 74% 0.00 in
00:05 69.1 °F 60.5 °F 29.99 in Calm   1.0 mph 74% 0.00 in
00:10 69.0 °F 60.7 °F 29.98 in SSW 3.0 mph 4.0 mph 75% 0.00 in
00:15 69.1 °F 60.8 °F 29.98 in SW 1.0 mph 5.0 mph 75% 0.00 in
00:20 69.0 °F 60.7 °F 29.98 in SW 1.0 mph 5.0 mph 75% 0.00 in
00:25 69.0 °F 60.7 °F 29.98 in Calm   3.0 mph 75% 0.00 in
00:30 69.0 °F 60.7 °F 29.98 in South 5.0 mph 6.0 mph 75% 0.00 in
00:35 69.1 °F 60.8 °F 29.98 in SSW 2.0 mph 6.0 mph 75% 0.00 in
00:40 69.0 °F 60.7 °F 29.98 in Calm   4.0 mph 75% 0.00 in
00:45 69.1 °F 60.8 °F 29.98 in SSW 1.0 mph 5.0 mph 75% 0.00 in
00:50 69.2 °F 60.6 °F 29.98 in SSW 2.0 mph 5.0 mph 74% 0.00 in
00:55 69.3 °F 60.7 °F 29.97 in SSW 2.0 mph 4.0 mph 74% 0.00 in
01:00 69.2 °F 60.9 °F 29.98 in Calm   3.0 mph 75% 0.00 in
01:05 69.3 °F 61.0 °F 29.98 in Calm     75% 0.00 in
01:10 69.2 °F 60.9 °F 29.98 in Calm     75% 0.00 in
01:15 69.0 °F 61.1 °F 29.98 in Calm     76% 0.00 in
01:20 68.9 °F 61.4 °F 29.98 in Calm     77% 0.00 in
01:25 68.9 °F 61.4 °F 29.98 in Calm     77% 0.00 in
01:30 68.7 °F 61.2 °F 29.98 in Calm     77% 0.00 in
01:35 68.7 °F 61.6 °F 29.98 in Calm     78% 0.00 in
01:40 68.7 °F 61.6 °F 29.98 in Calm     78% 0.00 in
01:45 68.5 °F 61.7 °F 29.98 in Calm     79% 0.00 in
01:50 68.5 °F 61.7 °F 29.98 in Calm     79% 0.00 in
01:55 68.5 °F 61.7 °F 29.98 in Calm     79% 0.00 in
02:00 68.5 °F 62.1 °F 29.97 in Calm     80% 0.00 in
02:05 68.5 °F 62.1 °F 29.98 in Calm   4.0 mph 80% 0.00 in
02:10 68.6 °F 62.2 °F 29.98 in Calm   3.0 mph 80% 0.00 in
02:15 68.5 °F 62.1 °F 29.97 in SSW 1.0 mph 3.0 mph 80% 0.00 in
02:20 68.5 °F 62.4 °F 29.97 in Calm   2.0 mph 81% 0.00 in
02:25 68.5 °F 62.4 °F 29.97 in Calm   3.0 mph 81% 0.00 in
02:30 68.3 °F 62.2 °F 29.97 in Calm     81% 0.00 in
02:35 68.2 °F 62.1 °F 29.97 in Calm     81% 0.00 in
02:40 68.1 °F 62.4 °F 29.96 in Calm     82% 0.00 in
02:45 67.9 °F 62.2 °F 29.96 in Calm     82% 0.00 in
02:50 67.9 °F 62.2 °F 29.96 in Calm     82% 0.00 in
02:55 67.9 °F 62.2 °F 29.95 in Calm   1.0 mph 82% 0.00 in
03:00 67.8 °F 62.1 °F 29.95 in Calm   2.0 mph 82% 0.00 in
03:05 67.8 °F 62.1 °F 29.95 in SSW 1.0 mph 2.0 mph 82% 0.00 in
03:10 67.7 °F 62.0 °F 29.95 in Calm     82% 0.00 in
03:15 67.7 °F 62.0 °F 29.95 in Calm     82% 0.00 in
03:20 67.7 °F 62.0 °F 29.95 in Calm     82% 0.00 in
03:25 67.6 °F 61.9 °F 29.95 in Calm     82% 0.00 in
03:30 67.5 °F 61.8 °F 29.95 in Calm     82% 0.00 in
03:35 67.5 °F 62.2 °F 29.95 in Calm     83% 0.00 in
03:40 67.4 °F 62.1 °F 29.95 in Calm     83% 0.00 in
03:45 67.4 °F 62.1 °F 29.94 in Calm     83% 0.00 in
03:50 67.5 °F 62.2 °F 29.94 in Calm     83% 0.00 in
03:55 67.5 °F 62.2 °F 29.94 in Calm     83% 0.00 in
04:00 67.5 °F 62.2 °F 29.94 in Calm     83% 0.00 in
04:05 67.4 °F 62.1 °F 29.95 in Calm     83% 0.00 in
04:10 67.4 °F 62.1 °F 29.94 in Calm     83% 0.00 in
04:15 67.4 °F 62.4 °F 29.94 in Calm     84% 0.00 in
04:20 67.4 °F 62.4 °F 29.95 in Calm     84% 0.00 in
04:25 67.4 °F 62.4 °F 29.95 in Calm     84% 0.00 in
04:30 67.4 °F 62.4 °F 29.95 in Calm     84% 0.00 in
04:35 67.4 °F 62.4 °F 29.95 in Calm     84% 0.00 in
04:40 67.4 °F 62.4 °F 29.95 in Calm     84% 0.00 in
04:45 67.4 °F 62.4 °F 29.95 in Calm     84% 0.00 in
04:50 67.4 °F 62.7 °F 29.95 in Calm     85% 0.00 in
04:55 67.3 °F 62.6 °F 29.95 in Calm     85% 0.00 in
05:00 67.2 °F 62.5 °F 29.96 in Calm     85% 0.00 in
05:05 67.2 °F 62.9 °F 29.96 in Calm     86% 0.00 in
05:10 67.2 °F 62.9 °F 29.96 in Calm     86% 0.00 in
05:15 67.3 °F 63.0 °F 29.95 in Calm     86% 0.00 in
05:20 67.5 °F 63.2 °F 29.95 in Calm   2.0 mph 86% 0.00 in
05:25 67.7 °F 63.4 °F 29.96 in SSW 1.0 mph 1.0 mph 86% 0.00 in
05:30 67.8 °F 63.1 °F 29.96 in Calm   2.0 mph 85% 0.00 in
05:35 67.9 °F 63.2 °F 29.96 in Calm     85% 0.00 in
05:40 67.9 °F 63.2 °F 29.96 in Calm     85% 0.01 in
05:45 67.8 °F 63.5 °F 29.96 in Calm     86% 0.01 in
05:50 67.6 °F 63.3 °F 29.96 in Calm     86% 0.02 in
05:55 67.4 °F 63.4 °F 29.96 in Calm     87% 0.02 in
06:00 67.3 °F 63.6 °F 29.96 in Calm     88% 0.03 in
06:05 67.2 °F 63.5 °F 29.96 in Calm     88% 0.03 in
06:10 67.1 °F 63.4 °F 29.96 in Calm     88% 0.04 in
06:15 67.2 °F 63.8 °F 29.96 in Calm     89% 0.04 in
06:20 67.2 °F 63.8 °F 29.96 in Calm     89% 0.04 in
06:25 67.1 °F 64.1 °F 29.96 in Calm     90% 0.04 in
06:30 67.1 °F 64.1 °F 29.96 in Calm     90% 0.04 in
06:35 67.1 °F 64.1 °F 29.95 in Calm     90% 0.05 in
06:40 67.1 °F 64.1 °F 29.95 in Calm     90% 0.05 in
06:45 67.2 °F 64.5 °F 29.95 in Calm     91% 0.05 in
06:50 67.4 °F 64.7 °F 29.95 in Calm     91% 0.04 in
06:55 67.2 °F 64.5 °F 29.95 in Calm     91% 0.04 in
07:00 67.3 °F 64.6 °F 29.95 in Calm     91% 0.03 in
07:05 67.4 °F 64.7 °F 29.95 in Calm     91% 0.03 in
07:10 67.6 °F 64.9 °F 29.95 in Calm     91% 0.02 in
07:15 67.7 °F 65.0 °F 29.94 in Calm     91% 0.02 in
07:20 67.8 °F 65.1 °F 29.95 in Calm     91% 0.02 in
07:25 67.9 °F 65.2 °F 29.95 in Calm     91% 0.02 in
07:30 68.1 °F 65.4 °F 29.95 in Calm     91% 0.02 in
07:35 68.2 °F 65.5 °F 29.95 in Calm     91% 0.01 in
07:40 68.4 °F 65.7 °F 29.95 in Calm     91% 0.00 in
07:45 68.5 °F 65.8 °F 29.95 in Calm     91% 0.00 in
07:50 68.5 °F 65.8 °F 29.95 in Calm     91% 0.00 in
07:55 68.3 °F 65.6 °F 29.95 in Calm     91% 0.00 in
08:00 68.2 °F 65.2 °F 29.95 in Calm     90% 0.00 in
08:05 68.3 °F 65.3 °F 29.95 in Calm     90% 0.00 in
08:10 68.4 °F 65.4 °F 29.94 in Calm     90% 0.00 in
08:15 68.4 °F 65.4 °F 29.94 in Calm     90% 0.00 in
08:20 68.5 °F 65.4 °F 29.94 in Calm     90% 0.00 in
08:25 68.6 °F 65.5 °F 29.95 in Calm     90% 0.00 in
08:30 68.5 °F 65.1 °F 29.95 in Calm     89% 0.00 in
08:35 68.5 °F 65.1 °F 29.95 in Calm     89% 0.00 in
08:40 68.7 °F 65.3 °F 29.95 in Calm     89% 0.00 in
08:45 68.8 °F 65.4 °F 29.95 in Calm     89% 0.00 in
08:55 69.3 °F 65.9 °F 29.95 in Calm     89% 0.00 in
09:00 69.4 °F 65.7 °F 29.95 in Calm     88% 0.00 in
09:05 69.4 °F 65.7 °F 29.95 in Calm     88% 0.00 in
09:10 69.5 °F 65.8 °F 29.95 in Calm     88% 0.00 in
09:15 69.6 °F 65.9 °F 29.94 in Calm     88% 0.00 in
09:20 70.3 °F 66.6 °F 29.94 in Calm     88% 0.00 in
09:25 70.4 °F 66.3 °F 29.95 in Calm     87% 0.00 in
09:29 70.6 °F 66.5 °F 29.94 in Calm     87% 0.00 in
09:35 70.7 °F 66.3 °F 29.94 in Calm     86% 0.00 in
09:40 71.0 °F 66.9 °F 29.94 in Calm     87% 0.00 in
09:45 71.0 °F 66.3 °F 29.94 in Calm     85% 0.00 in
09:50 71.3 °F 66.6 °F 29.94 in West 2.0 mph 4.0 mph 85% 0.00 in
09:55 71.4 °F 66.3 °F 29.94 in WNW 1.0 mph 3.0 mph 84% 0.00 in
10:00 71.5 °F 66.4 °F 29.94 in Calm   3.0 mph 84% 0.00 in
10:05 71.8 °F 66.4 °F 29.94 in NW 1.0 mph 5.0 mph 83% 0.00 in
10:10 72.1 °F 66.6 °F 29.94 in WNW 1.0 mph 5.0 mph 83% 0.00 in
10:15 71.9 °F 66.1 °F 29.94 in WNW 1.0 mph 5.0 mph 82% 0.00 in
10:20 71.9 °F 66.5 °F 29.94 in WNW 1.0 mph 3.0 mph 83% 0.00 in
10:25 72.1 °F 66.3 °F 29.94 in Calm   2.0 mph 82% 0.00 in
10:30 72.1 °F 65.9 °F 29.94 in Calm   4.0 mph 81% 0.00 in
10:35 72.2 °F 66.4 °F 29.95 in WNW 1.0 mph 4.0 mph 82% 0.00 in
10:39 72.2 °F 66.0 °F 29.94 in Calm   2.0 mph 81% 0.00 in
10:44 72.2 °F 65.0 °F 29.94 in NW 2.0 mph 4.0 mph 78% 0.00 in
10:49 72.6 °F 65.0 °F 29.95 in NW 3.0 mph 6.0 mph 77% 0.00 in
10:55 73.1 °F 64.7 °F 29.95 in WNW 3.0 mph 6.0 mph 75% 0.00 in
10:59 72.9 °F 64.9 °F 29.95 in NW 3.0 mph 6.0 mph 76% 0.00 in
11:05 73.1 °F 65.1 °F 29.94 in NNW 2.0 mph 6.0 mph 76% 0.00 in
11:10 73.1 °F 65.1 °F 29.94 in North 4.0 mph 8.0 mph 76% 0.00 in
11:15 73.7 °F 66.0 °F 29.94 in NNW 4.0 mph 5.0 mph 77% 0.00 in
11:20 73.7 °F 66.0 °F 29.94 in NNW 1.0 mph 5.0 mph 77% 0.00 in
11:25 73.2 °F 65.6 °F 29.94 in NW 2.0 mph 6.0 mph 77% 0.00 in
11:29 72.5 °F 64.9 °F 29.94 in NNW 3.0 mph 6.0 mph 77% 0.00 in
11:35 72.6 °F 65.7 °F 29.94 in North 2.0 mph 6.0 mph 79% 0.00 in
11:40 72.4 °F 65.2 °F 29.94 in NE 1.0 mph 5.0 mph 78% 0.00 in
11:45 72.4 °F 65.5 °F 29.94 in NE 3.0 mph 8.0 mph 79% 0.00 in
11:49 73.0 °F 66.1 °F 29.93 in Calm   3.0 mph 79% 0.00 in
11:54 72.8 °F 65.5 °F 29.93 in NE 2.0 mph 5.0 mph 78% 0.00 in
11:59 72.6 °F 65.7 °F 29.93 in NNE 2.0 mph 5.0 mph 79% 0.00 in
12:05 72.5 °F 65.2 °F 29.93 in ENE 2.0 mph 4.0 mph 78% 0.00 in
12:10 73.0 °F 66.1 °F 29.93 in Calm   5.0 mph 79% 0.00 in
12:15 72.6 °F 65.3 °F 29.93 in ENE 4.0 mph 7.0 mph 78% 0.00 in
12:20 73.0 °F 65.7 °F 29.92 in ENE 1.0 mph 6.0 mph 78% 0.00 in
12:25 73.8 °F 66.5 °F 29.92 in NE 3.0 mph 6.0 mph 78% 0.00 in
12:30 73.7 °F 66.4 °F 29.92 in ENE 2.0 mph 6.0 mph 78% 0.00 in
12:35 73.9 °F 65.9 °F 29.92 in ENE 1.0 mph 5.0 mph 76% 0.00 in
12:40 73.5 °F 65.8 °F 29.92 in ESE 1.0 mph 4.0 mph 77% 0.00 in
12:45 74.0 °F 66.0 °F 29.92 in East 1.0 mph 6.0 mph 76% 0.00 in
12:50 73.8 °F 65.4 °F 29.92 in East 1.0 mph 3.0 mph 75% 0.00 in
12:55 74.0 °F 66.0 °F 29.92 in East 1.0 mph 3.0 mph 76% 0.00 in
12:59 73.7 °F 65.7 °F 29.92 in South 2.0 mph 4.0 mph 76% 0.00 in
13:05 73.5 °F 66.2 °F 29.92 in Calm   4.0 mph 78% 0.00 in
13:10 73.9 °F 65.5 °F 29.92 in South 2.0 mph 3.0 mph 75% 0.00 in
13:14 74.3 °F 65.9 °F 29.92 in SSW 2.0 mph 4.0 mph 75% 0.00 in
13:20 74.2 °F 65.8 °F 29.92 in SW 2.0 mph 4.0 mph 75% 0.00 in
13:25 74.5 °F 66.4 °F 29.92 in SW 1.0 mph 4.0 mph 76% 0.00 in
13:30 74.8 °F 66.0 °F 29.91 in SSW 1.0 mph 3.0 mph 74% 0.00 in
13:34 75.3 °F 66.0 °F 29.91 in SSE 1.0 mph 4.0 mph 73% 0.00 in
13:40 75.9 °F 66.6 °F 29.91 in South 3.0 mph 3.0 mph 73% 0.00 in
13:45 75.8 °F 66.1 °F 29.91 in SW 2.0 mph 5.0 mph 72% 0.00 in
13:50 75.6 °F 65.5 °F 29.91 in Calm   3.0 mph 71% 0.00 in
13:54 75.7 °F 65.6 °F 29.91 in SSW 1.0 mph 3.0 mph 71% 0.00 in
14:00 76.1 °F 66.0 °F 29.90 in SSW 2.0 mph 5.0 mph 71% 0.00 in
14:04 75.7 °F 65.6 °F 29.90 in SSW 1.0 mph 5.0 mph 71% 0.00 in
14:09 75.5 °F 65.4 °F 29.90 in South 1.0 mph 5.0 mph 71% 0.00 in
14:14 75.6 °F 65.9 °F 29.90 in SSE 2.0 mph 4.0 mph 72% 0.00 in
14:20 75.9 °F 66.6 °F 29.89 in South 2.0 mph 5.0 mph 73% 0.00 in
14:24 76.3 °F 65.8 °F 29.90 in South 2.0 mph 6.0 mph 70% 0.00 in
14:29 76.4 °F 65.5 °F 29.90 in SSW 2.0 mph 6.0 mph 69% 0.00 in
14:35 77.6 °F 66.6 °F 29.90 in SW 2.0 mph 6.0 mph 69% 0.00 in
14:40 77.4 °F 66.4 °F 29.90 in SW 4.0 mph 6.0 mph 69% 0.00 in
14:45 77.1 °F 66.6 °F 29.89 in SSW 2.0 mph 6.0 mph 70% 0.00 in
14:50 77.5 °F 66.1 °F 29.89 in WSW 4.0 mph 5.0 mph 68% 0.00 in
14:54 77.6 °F 65.3 °F 29.89 in SSW 3.0 mph 7.0 mph 66% 0.00 in
15:00 77.5 °F 65.7 °F 29.89 in SW 4.0 mph 7.0 mph 67% 0.00 in
15:05 78.5 °F 66.6 °F 29.89 in SW 3.0 mph 6.0 mph 67% 0.00 in
15:10 78.6 °F 66.3 °F 29.89 in WSW 3.0 mph 8.0 mph 66% 0.00 in
15:14 78.9 °F 65.2 °F 29.89 in WSW 2.0 mph 7.0 mph 63% 0.00 in
15:19 79.0 °F 64.4 °F 29.89 in WSW 5.0 mph 6.0 mph 61% 0.00 in
15:25 80.3 °F 65.6 °F 29.89 in WSW 4.0 mph 7.0 mph 61% 0.00 in
15:29 80.2 °F 65.5 °F 29.89 in WNW 4.0 mph 7.0 mph 61% 0.00 in
15:34 81.0 °F 64.8 °F 29.89 in WNW 2.0 mph 7.0 mph 58% 0.00 in
15:39 81.1 °F 63.9 °F 29.89 in West 2.0 mph 6.0 mph 56% 0.00 in
15:45 81.0 °F 64.3 °F 29.88 in West 3.0 mph 7.0 mph 57% 0.00 in
15:55 80.7 °F 66.0 °F 29.88 in WSW 3.0 mph 7.0 mph 61% 0.00 in
15:59 80.9 °F 64.7 °F 29.88 in West 3.0 mph 8.0 mph 58% 0.00 in
16:05 81.2 °F 65.5 °F 29.88 in WNW 3.0 mph 8.0 mph 59% 0.00 in
16:10 81.9 °F 66.2 °F 29.88 in SW 4.0 mph 5.0 mph 59% 0.00 in
16:15 81.6 °F 66.8 °F 29.88 in WNW 2.0 mph 8.0 mph 61% 0.00 in
16:20 81.4 °F 65.7 °F 29.88 in West 7.0 mph 7.0 mph 59% 0.00 in
16:24 80.7 °F 64.5 °F 29.87 in West 3.0 mph 7.0 mph 58% 0.00 in
16:30 81.1 °F 63.9 °F 29.87 in West 3.0 mph 7.0 mph 56% 0.00 in
16:34 80.7 °F 63.5 °F 29.87 in West 2.0 mph 6.0 mph 56% 0.00 in
16:39 81.3 °F 65.6 °F 29.87 in West 6.0 mph 7.0 mph 59% 0.00 in
16:44 81.4 °F 64.7 °F 29.87 in WSW 2.0 mph 6.0 mph 57% 0.00 in
16:49 81.3 °F 64.6 °F 29.87 in West 3.0 mph 6.0 mph 57% 0.00 in
16:55 81.7 °F 65.0 °F 29.87 in West 2.0 mph 7.0 mph 57% 0.00 in
17:00 81.6 °F 64.9 °F 29.86 in WNW 4.0 mph 7.0 mph 57% 0.00 in
17:04 81.4 °F 64.7 °F 29.86 in SW 7.0 mph 7.0 mph 57% 0.00 in
17:10 81.7 °F 65.0 °F 29.86 in WSW 4.0 mph 7.0 mph 57% 0.00 in
17:15 81.4 °F 64.7 °F 29.86 in WSW 3.0 mph 5.0 mph 57% 0.00 in
17:20 81.6 °F 66.4 °F 29.86 in Calm   3.0 mph 60% 0.00 in
17:24 81.4 °F 64.7 °F 29.86 in WSW 1.0 mph 3.0 mph 57% 0.00 in
17:29 81.6 °F 64.4 °F 29.86 in WSW 1.0 mph 5.0 mph 56% 0.00 in
17:34 81.0 °F 63.3 °F 29.86 in SW 2.0 mph 5.0 mph 55% 0.00 in
17:39 81.9 °F 66.2 °F 29.85 in NW 2.0 mph 3.0 mph 59% 0.00 in
17:44 81.2 °F 64.0 °F 29.86 in Calm   5.0 mph 56% 0.00 in
17:50 81.1 °F 64.9 °F 29.85 in NE 3.0 mph 3.0 mph 58% 0.00 in
17:54 80.6 °F 65.4 °F 29.85 in SE 1.0 mph 3.0 mph 60% 0.00 in
17:59 80.2 °F 65.1 °F 29.85 in NE 1.0 mph 3.0 mph 60% 0.00 in
18:04 80.0 °F 65.3 °F 29.85 in Calm   2.0 mph 61% 0.00 in
18:10 79.9 °F 64.8 °F 29.85 in WNW 2.0 mph 3.0 mph 60% 0.00 in
18:14 79.9 °F 65.2 °F 29.85 in WNW 1.0 mph 4.0 mph 61% 0.00 in
18:19 79.8 °F 63.7 °F 29.85 in NW 2.0 mph 4.0 mph 58% 0.00 in
18:24 79.8 °F 64.7 °F 29.85 in NW 2.0 mph 4.0 mph 60% 0.00 in
18:29 80.3 °F 65.1 °F 29.85 in WNW 2.0 mph 4.0 mph 60% 0.00 in
18:35 80.1 °F 65.0 °F 29.84 in West 2.0 mph 4.0 mph 60% 0.00 in
18:40 79.6 °F 65.4 °F 29.85 in WSW 2.0 mph 4.0 mph 62% 0.00 in
18:44 79.8 °F 65.2 °F 29.85 in Calm   3.0 mph 61% 0.00 in
18:49 79.4 °F 65.2 °F 29.85 in West 2.0 mph 3.0 mph 62% 0.00 in
18:54 79.2 °F 65.1 °F 29.85 in WSW 1.0 mph 3.0 mph 62% 0.00 in
18:59 79.0 °F 64.9 °F 29.85 in WSW 1.0 mph 4.0 mph 62% 0.00 in
19:04 78.7 °F 64.6 °F 29.85 in SW 2.0 mph 5.0 mph 62% 0.00 in
19:09 78.7 °F 64.6 °F 29.86 in West 2.0 mph 5.0 mph 62% 0.00 in
19:14 78.5 °F 64.9 °F 29.86 in WSW 1.0 mph 4.0 mph 63% 0.00 in
19:19 78.2 °F 64.6 °F 29.86 in West 2.0 mph 4.0 mph 63% 0.00 in
19:25 78.0 °F 64.8 °F 29.86 in WSW 2.0 mph 5.0 mph 64% 0.00 in
19:30 77.8 °F 64.6 °F 29.86 in WSW 2.0 mph 5.0 mph 64% 0.00 in
19:34 77.5 °F 64.4 °F 29.86 in WSW 2.0 mph 5.0 mph 64% 0.00 in
19:40 77.3 °F 64.6 °F 29.86 in WSW 2.0 mph 5.0 mph 65% 0.00 in
19:45 77.2 °F 64.5 °F 29.86 in WSW 2.0 mph 5.0 mph 65% 0.00 in
19:49 77.1 °F 64.4 °F 29.86 in WSW 2.0 mph 5.0 mph 65% 0.00 in
19:54 77.0 °F 64.3 °F 29.86 in SW 3.0 mph 3.0 mph 65% 0.00 in
20:04 76.9 °F 64.7 °F 29.86 in WSW 1.0 mph 3.0 mph 66% 0.00 in
20:09 76.8 °F 64.6 °F 29.86 in West 2.0 mph 2.0 mph 66% 0.00 in
20:14 76.6 °F 64.4 °F 29.86 in West 2.0 mph 3.0 mph 66% 0.00 in
20:19 76.5 °F 64.7 °F 29.86 in West 1.0 mph 3.0 mph 67% 0.00 in
20:24 76.3 °F 64.5 °F 29.87 in Calm   3.0 mph 67% 0.00 in
20:29 76.1 °F 64.3 °F 29.86 in Calm     67% 0.00 in
20:34 76.0 °F 64.7 °F 29.86 in Calm     68% 0.00 in
20:39 75.9 °F 64.6 °F 29.87 in West 4.0 mph 6.0 mph 68% 0.00 in
20:44 75.8 °F 64.9 °F 29.87 in West 2.0 mph 6.0 mph 69% 0.00 in
20:49 75.7 °F 65.2 °F 29.87 in WNW 3.0 mph 5.0 mph 70% 0.00 in
20:55 75.3 °F 65.6 °F 29.87 in NW 2.0 mph 5.0 mph 72% 0.00 in
20:59 74.7 °F 66.2 °F 29.87 in NW 2.0 mph 5.0 mph 75% 0.00 in
21:04 74.3 °F 66.2 °F 29.88 in NNW 1.0 mph 6.0 mph 76% 0.00 in
21:09 73.9 °F 66.6 °F 29.87 in NNW 3.0 mph 5.0 mph 78% 0.00 in
21:14 73.4 °F 66.5 °F 29.87 in NNW 2.0 mph 3.0 mph 79% 0.00 in
21:19 73.3 °F 67.1 °F 29.87 in Calm   4.0 mph 81% 0.00 in
21:24 73.1 °F 67.3 °F 29.87 in Calm   1.0 mph 82% 0.00 in
21:29 73.0 °F 67.2 °F 29.87 in Calm     82% 0.00 in
21:34 73.0 °F 67.2 °F 29.87 in Calm     82% 0.00 in
21:39 73.0 °F 67.5 °F 29.88 in WNW 2.0 mph 4.0 mph 83% 0.00 in
21:44 73.0 °F 67.5 °F 29.88 in WNW 1.0 mph 4.0 mph 83% 0.00 in
21:49 72.9 °F 67.4 °F 29.87 in WNW 1.0 mph 4.0 mph 83% 0.00 in
21:55 72.8 °F 67.3 °F 29.88 in Calm   2.0 mph 83% 0.00 in
22:00 72.8 °F 67.3 °F 29.88 in Calm   2.0 mph 83% 0.00 in
22:04 72.7 °F 67.6 °F 29.87 in Calm     84% 0.00 in
22:09 72.5 °F 67.4 °F 29.87 in Calm     84% 0.00 in
22:14 72.4 °F 67.3 °F 29.87 in Calm     84% 0.00 in
22:19 72.4 °F 67.3 °F 29.87 in Calm     84% 0.00 in
22:24 72.4 °F 67.6 °F 29.87 in Calm     85% 0.00 in
22:29 72.4 °F 67.6 °F 29.87 in Calm   2.0 mph 85% 0.00 in
22:30 72.4 °F 67.6 °F 29.87 in Calm   2.0 mph 85% 0.00 in
22:35 72.4 °F 67.6 °F 29.87 in Calm   2.0 mph 85% 0.00 in
22:40 72.3 °F 67.5 °F 29.87 in Calm     85% 0.00 in
22:44 72.2 °F 67.4 °F 29.87 in Calm     85% 0.00 in
22:49 72.1 °F 67.3 °F 29.87 in Calm     85% 0.00 in
22:54 72.2 °F 67.4 °F 29.87 in Calm     85% 0.00 in
22:55 72.2 °F 67.4 °F 29.87 in Calm     85% 0.00 in
23:05 72.3 °F 67.5 °F 29.87 in Calm     85% 0.00 in
23:09 72.4 °F 67.3 °F 29.87 in Calm     84% 0.00 in
23:14 72.4 °F 67.3 °F 29.88 in Calm     84% 0.00 in
23:19 72.4 °F 66.9 °F 29.87 in Calm     83% 0.00 in
23:24 72.5 °F 67.0 °F 29.87 in Calm     83% 0.00 in
23:29 72.4 °F 66.6 °F 29.87 in Calm     82% 0.00 in
23:34 72.5 °F 66.3 °F 29.87 in Calm   3.0 mph 81% 0.00 in
23:39 72.4 °F 66.2 °F 29.87 in NE 1.0 mph 3.0 mph 81% 0.00 in
23:44 72.2 °F 66.0 °F 29.87 in Calm   1.0 mph 81% 0.00 in
23:49 72.0 °F 66.2 °F 29.87 in Calm     82% 0.00 in
23:54 71.9 °F 66.1 °F 29.88 in Calm     82% 0.00 in
23:59 71.9 °F 66.1 °F 29.88 in Calm   2.0 mph 82% 0.00 in
Buffalo, New York, USA
Compliments of Weather Underground - 2.5 mb